Satellite: FIREBIRD FU3
Catalog number: 40377
Epoch time: 15092.60748030
Element set: 999
Inclination: 099.1234 deg
RA of node: 112.1679 deg
Eccentricity: 0.0163828
Arg of perigee: 140.5337 deg
Mean anomaly: 220.7941 deg
Mean motion: 15.05726221 rev/day
Decay rate: 1.4428e-04 rev/day^2
Epoch rev: 917
Checksum: 301
Satellite: FIREBIRD FU4
Catalog number: 40378
Epoch time: 15092.60638098
Element set: 999
Inclination: 099.1241 deg
RA of node: 112.1713 deg
Eccentricity: 0.0163956
Arg of perigee: 140.4423 deg
Mean anomaly: 220.8878 deg
Mean motion: 15.05751400 rev/day
Decay rate: 1.4371e-04 rev/day^2
Epoch rev: 917
Checksum: 303
Satellite: GRIFEX
Catalog number: 40379
Epoch time: 15092.61559680
Element set: 999
Inclination: 099.1244 deg
RA of node: 112.1635 deg
Eccentricity: 0.0164258
Arg of perigee: 141.4206 deg
Mean anomaly: 219.8861 deg
Mean motion: 15.05389032 rev/day
Decay rate: 1.0967e-04 rev/day^2
Epoch rev: 917
Checksum: 317
Satellite: LAMBDA-SAT
Catalog number: 40458
Epoch time: 15092.58533832
Element set: 999
Inclination: 051.6420 deg
RA of node: 100.7025 deg
Eccentricity: 0.0007294
Arg of perigee: 140.9955 deg
Mean anomaly: 308.4253 deg
Mean motion: 15.64808430 rev/day
Decay rate: 2.16222e-03 rev/day^2
Epoch rev: 1424
Checksum: 287
/EX